Location: York
(53.9600°N, 1.0873°W)
Time: 14:27:55
(UTC+01:00)

ISS - Visible Passes

Search period start: 17 July 2025 00:00
Search period end: 27 July 2025 00:00
Orbit: 415 x 418 km, 51.6° (Epoch: 17 July)

Date Brightness Start Highest point End Pass type
(mag) Time Alt. Az. Time Alt. Az. Time Alt. Az.
17 Jul -1.6 00:57:17 10° WSW 00:58:17 14° WSW 00:58:17 14° WSW visible
17 Jul -3.5 22:31:40 10° W 22:34:56 50° SSW 22:38:12 10° ESE visible
18 Jul -2.3 00:08:38 10° W 00:11:15 21° SSW 00:11:22 21° SSW visible
18 Jul -2.6 23:20:10 10° W 23:23:05 27° SSW 23:24:31 20° SSE visible
19 Jul -2.9 22:31:46 10° W 22:34:52 35° SSW 22:37:41 12° SE visible
20 Jul -1.4 00:09:46 10° WSW 00:10:34 11° SW 00:10:34 11° SW visible
20 Jul -1.8 23:20:40 10° WSW 23:22:49 16° SW 23:23:46 15° SSW visible
21 Jul -2.1 22:32:00 10° W 22:34:39 22° SSW 22:37:01 11° SSE visible
23 Jul -1.3 22:32:55 10° WSW 22:34:15 12° SW 22:35:35 10° SSW visible
